Weather History for KGON - September, 2012

Change the Weather History Date:

Wednesday, September 26, 2012

  Actual Average Record
Temperature  
Mean Temperature 68 °F -  
Max Temperature 73 °F 69 °F 85 °F (1958)
Min Temperature 64 °F 51 °F 37 °F (1966)
Cooling Degree Days 3    
Growing Degree Days 18 (Base 50)    
Moisture  
Dew Point 62 °F    
Average Humidity 77    
Maximum Humidity 90    
Minimum Humidity 69    
Precipitation  
Precipitation 0.00 in - - ()
Sea Level Pressure  
Sea Level Pressure 30.08 in    
Wind  
Wind Speed 15 mph (SW)    
Max Wind Speed 20 mph    
Max Gust Speed 25 mph    
Visibility 8 miles    
Events      
Averages and records for this station are not official NWS values.
T = Trace of Precipitation, MM = Missing Value Source: NWS Daily Summary

Daily Weather History Graph

Daily Weather History Graph

Search for Another Location

Airport or City:

Trip Planner

Search our weather history database for the weather conditions in past years. The results will help you decide how hot, cold, wet, or windy it might be!

Date:

Astronomy

Sep. 26, 2012 Rise Set
Actual Time 6:40 AM EDT 6:37 PM EDT
Civil Twilight 6:12 AM EDT 7:05 PM EDT
Nautical Twilight 5:40 AM EDT 7:37 PM EDT
Astronomical Twilight 5:07 AM EDT 8:09 PM EDT
Moon 4:37 PM EDT (9/26) 3:01 AM EDT (9/26)
Length of Visible Light 12h 52m
Length of Day
11h 57m
Waxing Gibbous, 88% of the Moon is Illuminated
Sep 26
Waxing Gibbous
Sep 29
Full
Oct 8
Last Quarter
Oct 15
New
Oct 21
First Quarter

Hourly Weather History & Observations

Time (EDT) Temp. Dew Point Humidity Pressure Visibility Wind Dir Wind Speed Gust Speed Precip Events Conditions
12:56 AM 64.9 °F 55.9 °F 73% 30.16 in 10.0 mi SW 16.1 mph - N/A   Clear
1:56 AM 64.9 °F 57.0 °F 75% 30.15 in 10.0 mi SSW 18.4 mph 23.0 mph N/A   Clear
2:56 AM 64.9 °F 57.0 °F 75% 30.12 in 10.0 mi SSW 18.4 mph - N/A   Clear
3:56 AM 66.0 °F 57.0 °F 73% 30.12 in 10.0 mi SSW 16.1 mph - N/A   Clear
4:56 AM 66.0 °F 59.0 °F 78% 30.12 in 10.0 mi SSW 13.8 mph - N/A   Mostly Cloudy
5:56 AM 66.0 °F 59.0 °F 78% 30.11 in 10.0 mi SSW 16.1 mph 23.0 mph 0.00 in   Mostly Cloudy
6:56 AM 66.9 °F 60.1 °F 79% 30.11 in 9.0 mi SSW 16.1 mph - N/A   Clear
7:56 AM 68.0 °F 60.8 °F 78% 30.10 in 8.0 mi South 19.6 mph - N/A   Scattered Clouds
8:56 AM 70.0 °F 62.1 °F 76% 30.10 in 8.0 mi SSW 18.4 mph - N/A   Partly Cloudy
9:56 AM 72.0 °F 63.0 °F 73% 30.10 in 8.0 mi SSW 17.3 mph - N/A   Mostly Cloudy
10:56 AM 71.1 °F 61.0 °F 70% 30.09 in 8.0 mi SW 19.6 mph 25.3 mph N/A   Overcast
11:00 AM 71.6 °F 60.8 °F 69% 30.10 in 8.0 mi SW 19.6 mph 24.2 mph N/A   Overcast
11:08 AM 71.6 °F 60.8 °F 69% 30.10 in 8.0 mi SW 19.6 mph - N/A   Overcast
11:19 AM 71.6 °F 60.8 °F 69% 30.10 in 8.0 mi SW 16.1 mph 24.2 mph N/A   Overcast
11:29 AM 71.6 °F 60.8 °F 69% 30.09 in 8.0 mi WSW 12.7 mph - N/A   Overcast
11:56 AM 71.1 °F 62.1 °F 73% 30.09 in 8.0 mi SW 11.5 mph - N/A   Mostly Cloudy
12:56 PM 71.6 °F 60.8 °F 69% 30.08 in 8.0 mi SW 16.1 mph - N/A   Scattered Clouds
1:56 PM 71.1 °F 62.1 °F 73% 30.06 in 8.0 mi SW 13.8 mph - N/A   Overcast
2:56 PM 72.0 °F 62.1 °F 71% 30.04 in 8.0 mi SW 15.0 mph - N/A   Mostly Cloudy
3:29 PM 71.6 °F 62.6 °F 73% 30.04 in 7.0 mi SSW 18.4 mph - N/A   Overcast
3:56 PM 71.1 °F 62.1 °F 73% 30.03 in 7.0 mi SSW 18.4 mph - N/A   Overcast
4:56 PM 70.0 °F 63.0 °F 78% 30.02 in 7.0 mi SSW 13.8 mph - N/A   Overcast
5:56 PM 69.1 °F 63.0 °F 81% 30.04 in 7.0 mi SW 11.5 mph - N/A   Overcast
6:56 PM 69.1 °F 64.0 °F 84% 30.04 in 8.0 mi SW 10.4 mph - N/A   Overcast
7:56 PM 69.1 °F 64.0 °F 84% 30.04 in 7.0 mi SW 8.1 mph - 0.00 in   Overcast
8:14 PM 69.8 °F 64.4 °F 83% 30.03 in 7.0 mi SSW 9.2 mph - N/A   Overcast
8:56 PM 68.0 °F 64.0 °F 87% 30.04 in 7.0 mi WSW 5.8 mph - 0.00 in   Mostly Cloudy
9:56 PM 66.9 °F 64.0 °F 90% 30.05 in 6.0 mi SSW 4.6 mph - N/A   Mostly Cloudy
10:56 PM 69.1 °F 64.9 °F 87% 30.04 in 6.0 mi Calm Calm - N/A   Overcast
11:51 PM 68.0 °F 64.4 °F 88% 30.04 in 6.0 mi WSW 4.6 mph - N/A   Overcast
11:56 PM 68.0 °F 64.9 °F 90% 30.04 in 6.0 mi Variable 3.5 mph - N/A   Mostly Cloudy